This demonstration page uses our WeatherBlox Daily Observations layout. Learn more.

Left ArrowRight Arrow

34.74481, -87.66753

Hourly Observations for May 3, 2020

Temp ( °F °C ) Dew Point ( °F °C ) Humidity (%) Winds ( mph kmh ) Pressure ( in mb ) Visibility ( mi km ) Precip ( " mm )
12:53 am 00:53 Clear 67 19.4 56 13.3 68 68 S 3 6 30.03 1017 10 16 0.00 0.00
1:53 am 01:53 Clear 65 18.3 56 13.3 73 73 SSE 3 6 30.01 1016 10 16 0.00 0.00
2:53 am 02:53 Clear 65 18.3 55 12.8 70 70 SSW 6 9 30.01 1016 10 16 0.00 0.00
3:53 am 03:53 Clear 65 18.3 55 12.8 70 70 SSW 8 13 30.01 1016 10 16 0.00 0.00
4:53 am 04:53 Clear 65 18.3 55 12.8 70 70 SW 3 6 30.03 1017 10 16 0.00 0.00
5:53 am 05:53 Clear 64 17.8 54 12.2 70 70 SSW 5 7 30.04 1017 10 16 0.00 0.00
6:53 am 06:53 Sunny 65 18.3 56 13.3 73 73 SSW 5 7 30.06 1018 10 16 0.00 0.00
7:53 am 07:53 Sunny 70 21.1 59 15 68 68 SW 7 11 30.06 1018 10 16 0.00 0.00
8:53 am 08:53 Sunny 73 22.8 60 15.6 64 64 WSW 12 19 30.04 1017 10 16 0.00 0.00
9:53 am 09:53 Sunny 77 25 62 16.7 60 60 SW 10 17 30.02 1017 10 16 0.00 0.00
10:53 am 10:53 Sunny 80 26.7 62 16.7 54 54 SW 13 20 29.99 1016 10 16 0.00 0.00
11:53 am 11:53 Sunny 83 28.3 61 16.1 48 48 SSW 13 20 29.97 1015 10 16 0.00 0.00
12:53 pm 12:53 Sunny 84 28.9 57 13.9 40 40 WSW 10 17 29.95 1014 10 16 0.00 0.00
1:53 pm 13:53 Sunny 86 30 54 12.2 33 33 SSW 13 20 29.94 1014 10 16 0.00 0.00
2:53 pm 14:53 Sunny 87 30.6 54 12.2 32 32 WSW 8 13 29.90 1012 10 16 0.00 0.00
3:53 pm 15:53 Sunny 86 30 56 13.3 36 36 WSW 18 30 29.88 1012 10 16 0.00 0.00
4:53 pm 16:53 Sunny 83 28.3 59 15 44 44 NW 12 19 29.98 1015 10 16 0.00 0.00
5:53 pm 17:53 Cloudy 73 22.8 58 14.4 59 59 N 6 9 29.99 1016 10 16 0.00 0.00
6:53 pm 18:53 Mostly Sunny 72 22.2 58 14.4 61 61 VRB 5 7 29.91 1013 10 16 0.00 0.00
7:53 pm 19:53 Clear 72 22.2 59 15 64 64 Calm 29.96 1015 10 16 0.00 0.00
8:53 pm 20:53 Clear 70 21.1 59 15 68 68 S 7 11 29.94 1014 10 16 0.00 0.00
9:53 pm 21:53 Clear 68 20 59 15 73 73 Calm 29.96 1015 10 16 0.00 0.00
10:53 pm 22:53 Clear 67 19.4 60 15.6 79 79 NE 5 7 29.96 1015 10 16 0.00 0.00
11:53 pm 23:53 Mostly Cloudy 66 18.9 61 16.1 84 84 Calm 29.94 1014 10 16 0.00 0.00

Powered by AerisWeather